STARLINK-1494, 45760

Orbit data source: Space-Track

STARLINK-1494, 45760 is a payload satellite owned by SpaceX/Seattle (US) in LEO that was launched on Sat, 13 Jun 2020 UTC via an FALCON 9 launch vehicle from the Air Force Eastern Test Range (AFETR). Payload-class satellites include a variety of spacecraft equipped with specific instruments for various scientific and technological missions. These include communications satellites like Starlink; space stations such as the ISS; scientific satellites like the Hubble; Earth observation satellites from companies like Planet Labs, Umbra, and HawkEye 360; GPS; miniature CubeSats for education and research; and military/defense satellites.

Not visible in the next 10 days
Identifier
45760, 2020-038AG
Orbit
LEO
Country
Flag of USUS
Related business
Manufacturer
SpaceX/Seattle
Mission
Partially operational Commercial Communications
Bus & Motor
STARLINK, Unknown motor
Mass
260 kg wet, ~248 kg dry
Launch date (UTC)
2020-06-13 (6 years ago)
Launch vehicle
FALCON 9
Launch site
Air Force Eastern Test Range (AFETR)
Object type
Payload
Rocket body
Debris
Shape & HBR
Box + 1 Pan, 10.1 m
Radar Cross Section
13.562 m², Large (>1 m²)

Expand to show TLE details & history
Last TLE update: 8 hours ago

TLE from 8 hours ago
0 STARLINK-1494
1 45760U 20038AG  26123.91668980  .00189753  00000-0  64182-3 0  9993
2 45760  53.0426 234.2424 0004861 317.0477 203.2900 15.88902826  6015
Epoch: 2026-05-03T22:00Z
TLE epoch observation values (Epoch: 2026-05-03T22:00:01.998Z)
Latitude
15.63194°
Longitude
-149.66259°
Altitude
308.554 km
Speed
7.724 km/s
True Right ascension
02h 48m 38s
True Declination
15° 32' 13"
Sunlit
Object was in daylight at epoch
Visualization orbit readout
Latitude
Unknown
Longitude
Unknown
Altitude
Unknown
Speed
Unknown
Apparent Right ascension
Unknown
Apparent Declination
Unknown
Sunlit
N/A
Visualization observer readout
Local Sidereal Time
13:21:55
Azimuth
Unknown
Elevation
Unknown
Doppler factor
Unknown
Orbital elements
Apogee altitude
308.889 km
Perigee altitude
302.391 km
Semi-major axis
6,683.777 km
Eccentricity
0.00049
Inclination
53.0426°
RAAN
234.2424°
Arg. of periapsis
317.0477°
True anomaly
203.26799°
Mean anomaly
203.29°
Eccentric anomaly
203.27899°
Mean motion
3.97201 °/min
Orbital period
90.63 mins
BSTAR
0.00064182
Loading maneuver chart data...
Computing Atmospheric mass density...
Loading historical data...
Loading historical data...
Loading historical data...
Loading historical data...
Loading historical data...
Loading historical data...
Loading historical data...

Documentation

Showing up to 5 results
|